Weather History for Olathe, KS

Change the Weather History Date:

Tuesday, May 14, 2013

  Actual Average Record
Temperature  
Mean Temperature 77 °F 64 °F  
Max Temperature 91 °F 74 °F 91 °F (2013)
Min Temperature 62 °F 54 °F 39 °F (1959)
Degree Days  
Heating Degree Days 0 3  
Month to date heating degree days 140 61  
Since 1 July heating degree days 5070 4892  
Cooling Degree Days 12 2  
Month to date cooling degree days 13 20  
Year to date cooling degree days 24 38  
Growing Degree Days 27 (Base 50)    
Moisture  
Dew Point 51 °F    
Average Humidity 47    
Maximum Humidity 73    
Minimum Humidity 21    
Precipitation  
Precipitation 0.00 in 0.17 in 2.35 in (1974)
Month to date precipitation 1.34 2.55  
Year to date precipitation 10.63 11.86  
Sea Level Pressure  
Sea Level Pressure 29.84 in    
Wind  
Wind Speed 12 mph (SW)    
Max Wind Speed 25 mph    
Max Gust Speed 36 mph    
Visibility 10 miles    
Events      
T = Trace of Precipitation, MM = Missing Value Source: NWS Daily Summary

Daily Weather History Graph

Daily Weather History Graph

Search for Another Location

Airport:

Trip Planner

Search our weather history database for the weather conditions in past years. The results will help you decide how hot, cold, wet, or windy it might be!

Date:

Astronomy

May. 14, 2013 Rise Set
Actual Time 6:07 AM CDT 8:23 PM CDT
Civil Twilight 5:37 AM CDT 8:53 PM CDT
Nautical Twilight 5:00 AM CDT 9:30 PM CDT
Astronomical Twilight 4:20 AM CDT 10:11 PM CDT
Moon 9:47 AM CDT (5/14) No Moon Set
Length of Visible Light 15h 16m
Length of Day
14h 16m
Waxing Crescent, 19% of the Moon is Illuminated
May 14
Waxing Crescent
May 17
First Quarter
May 24
Full
May 31
Last Quarter
Jun 8
New

Hourly Weather History & Observations

Time (CDT) Temp. Dew Point Humidity Pressure Visibility Wind Dir Wind Speed Gust Speed Precip Events Conditions
12:53 AM 64.0 °F 55.0 °F 73% 29.91 in 10.0 mi SSW 5.8 mph - N/A   Clear
1:53 AM 66.0 °F 55.0 °F 68% 29.88 in 10.0 mi SSW 9.2 mph - N/A   Clear
2:53 AM 64.9 °F 54.0 °F 68% 29.87 in 10.0 mi SSW 9.2 mph - N/A   Clear
3:53 AM 64.0 °F 55.0 °F 73% 29.86 in 10.0 mi SSW 10.4 mph - N/A   Clear
4:53 AM 63.0 °F 54.0 °F 72% 29.85 in 10.0 mi SSW 8.1 mph - N/A   Clear
5:53 AM 63.0 °F 53.1 °F 70% 29.86 in 10.0 mi SSW 5.8 mph - N/A   Clear
6:53 AM 66.0 °F 51.1 °F 59% 29.86 in 10.0 mi SW 9.2 mph - N/A   Clear
7:53 AM 69.1 °F 50.0 °F 51% 29.87 in 10.0 mi SW 11.5 mph 18.4 mph N/A   Clear
8:53 AM 73.0 °F 48.0 °F 41% 29.87 in 10.0 mi SW 11.5 mph 23.0 mph N/A   Clear
9:53 AM 75.0 °F 50.0 °F 41% 29.87 in 10.0 mi SW 13.8 mph - N/A   Clear
10:53 AM 80.1 °F 50.0 °F 35% 29.87 in 10.0 mi SW 12.7 mph 20.7 mph N/A   Clear
11:53 AM 84.0 °F 50.0 °F 31% 29.86 in 10.0 mi SW 16.1 mph 20.7 mph N/A   Clear
12:53 PM 87.1 °F 48.9 °F 27% 29.85 in 10.0 mi SW 17.3 mph 27.6 mph N/A   Clear
1:53 PM 89.1 °F 48.0 °F 24% 29.83 in 10.0 mi SW 16.1 mph 27.6 mph N/A   Clear
2:53 PM 91.0 °F 48.0 °F 23% 29.82 in 10.0 mi SW 17.3 mph 26.5 mph N/A   Clear
3:53 PM 91.0 °F 48.0 °F 23% 29.81 in 10.0 mi SW 15.0 mph 28.8 mph N/A   Clear
4:53 PM 90.0 °F 45.0 °F 21% 29.80 in 10.0 mi SW 17.3 mph 28.8 mph N/A   Clear
5:53 PM 88.0 °F 46.0 °F 23% 29.79 in 10.0 mi SW 11.5 mph 28.8 mph N/A   Clear
6:53 PM 84.9 °F 46.9 °F 27% 29.78 in 10.0 mi SSW 12.7 mph 24.2 mph N/A   Clear
7:53 PM 82.0 °F 46.0 °F 28% 29.79 in 10.0 mi SSW 8.1 mph 17.3 mph N/A   Clear
8:53 PM 75.0 °F 48.0 °F 38% 29.81 in 10.0 mi SSW 4.6 mph - N/A   Clear
9:53 PM 72.0 °F 52.0 °F 49% 29.83 in 10.0 mi SSW 6.9 mph - N/A   Clear
10:53 PM 72.0 °F 54.0 °F 53% 29.83 in 10.0 mi South 9.2 mph - N/A   Clear
11:53 PM 71.1 °F 57.0 °F 61% 29.83 in 10.0 mi SSW 11.5 mph 21.9 mph N/A   Clear